Regional Weather Roundup
Issued by NWS Charleston, SC

Current Version | Previous Version | Graphics & Text | Print | Product List | Glossary On
Versions: 1 2 3 4 5 6 7 8 9 10 11 12 13 14 15 16 17 18 19 20 21 22 23 24 25 26 27 28 29 30 31 32 33 34 35 36 37 38 39 40 41 42 43 44 45 46 47 48 49 50
000
ASUS42 KCHS 041013
RWRCHS

REGIONAL WEATHER ROUNDUP
NATIONAL WEATHER SERVICE CHARLESTON SC
600 AM EDT WED MAY 04 2016

NOTE: "FAIR" INDICATES FEW OR NO CLOUDS BELOW 12,000 FEET WITH NO
SIGNIFICANT WEATHER AND/OR OBSTRUCTIONS TO VISIBILITY.

NOT ALL STATIONS ARE QUALITY CONTROLLED. USE DATA WITH CAUTION...
ESPECIALLY DEWPOINT OBSERVATIONS.

SCZ027-030-031-034>040-042>050-041100-
...SOUTHEAST SOUTH CAROLINA...

CITY           SKY/WX    TMP DP  RH WIND       PRES   REMARKS
N CHARLESTON   MOCLDY    67  65  93 W6        29.72R
WATERFRONT PRK   N/A     69  67  93 VRB3      29.70R
MOUNT PLEASANT CLOUDY    68  66  94 SW6       29.72R
JOHNS ISLAND   CLOUDY    68  68 100 SW3       29.72S
PINOPOLIS        N/A     70  66  88 W7        29.63R
MONCKS CORNER  FAIR      63  59  88 SW7       29.72R
SUMMERVILLE    FAIR      64  64 100 S3        29.73R
BEAUFORT MCAS  CLOUDY    68  66  93 SW7       29.74R
BEAUFORT ARPT  CLOUDY    68  66  94 W5        29.74R
HILTON HEAD IS NOT AVBL
WALTERBORO     MOSUNNY   68  68 100 CALM      29.73R
ALLENDALE      FAIR      66  63  88 CALM      29.72S

...SOUTHERN MIDLANDS AND PEE DEE...

CITY           SKY/WX    TMP DP  RH WIND       PRES   REMARKS
GEORGETOWN     CLOUDY    64  63  94 CALM      29.71F
KINGSTREE      CLOUDY    64  63  94 CALM      29.69F
ORANGEBURG     CLOUDY    68  61  78 NW9       29.72S
BARNWELL       CLOUDY    70  64  83 W7        29.74S
AIKEN          PTSUNNY   61  55  82 W5        29.79R
MANNING        PTSUNNY   66  63  88 W3        29.70F
COLUMBIA       CLOUDY    67  57  70 W8        29.72R
SUMTER         CLOUDY    67  62  84 W7        29.69R
FLORENCE       CLOUDY    69  66  90 SW5       29.69F
MYRTLE BEACH   CLOUDY    70  57  64 SW6       29.72S
N MYRTLE BEACH CLOUDY    68  63  84 SW8       29.70S

$$

GAZ063-065-086>088-099>101-113>116-118-119-134>141-150-041100-
...SOUTHEAST GEORGIA...

CITY           SKY/WX    TMP DP  RH WIND       PRES   REMARKS
SAVANNAH ARPT  CLOUDY    68  66  93 W8        29.75S
HUNTER AAF     MOCLDY    68  68 100 W7        29.73S
FORT STEWART   CLOUDY    67  65  93 CALM      29.74S
STATESBORO     MOCLDY    69  68  97 W5        29.75R
SYLVANIA       MOSUNNY   67  66  94 NW6       29.74S
CLAXTON        CLOUDY    67  67 100 W5        29.76S

...CSRA...CENTRAL AND FAR SOUTHEAST GEORGIA...

CITY           SKY/WX    TMP DP  RH WIND       PRES   REMARKS
THOMSON        CLEAR     60  57  92 W5        29.83R
AUGUSTA-BUSH   CLOUDY    65  55  70 NW9       29.75S
AUGUSTA-DANIEL PTCLDY    64  54  69 NW7       29.76S
SWAINSBORO     CLOUDY    64  61  88 NW6       29.78R
VIDALIA        CLOUDY    68  63  83 NW8       29.77S
EASTMAN        CLOUDY    65  59  81 NW6       29.82R
HAZLEHURST     PTSUNNY   68  68 100 NW3       29.77S
ALMA           CLOUDY    68  67  96 NW6       29.77S
WAYCROSS       CLOUDY    67  67 100 CALM      29.77R
JESUP          CLOUDY    70  70 100 CALM      29.77S
BAXLEY         CLOUDY    70  68  94 NW6       29.77R
BRUNSWICK      CLOUDY    73  70  88 W6        29.77S
SAINT SIMONS   CLOUDY    71  68  90 W6        29.76R

$$

SCZ027-028-034-036>038-045-046-048>050-GAZ119-141-041100-
...LAKE AND SUPPLEMENTAL COASTAL OBSERVATIONS...

STATION/POSITION TIME  TEMP    WIND        PRES    WAVE   SWELL
                       AIR SEA DIR/SP/G            HT/PER HT/PER/DIR
                 (UTC) (F)     (DEG/KT/KT) (MB)    (FT/S) (FT/S/D)
WINYAH BAY       NOT AVBL
LAKE MURRAY      0900   65     290/  6/  9 1006.1S
ACE BASIN NERRS  NOT AVBL
FORT PULASKI     0900   70 75  240/  5/  7 1007.5R
SAPELO ISLAND    0900   71     250/  7     1007.0F

$$

ANZ835-935-AMZ111-154-330-350-352-354-370-450-454-472-041100-
...C-MAN AND BUOY OBSERVATIONS...

STATION/POSITION TIME  TEMP    WIND        PRES    WAVE   SWELL
                       AIR SEA DIR/SP/G            HT/PER HT/PER/DIR
                 (UTC) (F)     (DEG/KT/KT) (MB)    (FT/S) (FT/S/D)
BUOY 41004       0950   74 75  210/ 12/ 14 1005.7F   3/ 7   2/ 7
BUOY 41008       NOT AVBL
FOLLY BEACH CMAN 1000   70     250/  7/ 12 1006.6R
CAPERS NEARSHORE 0908   71 71  280/  8/ 12 1005.3F
FRIPP NEARSHORE  0908   72 72  260/ 12/ 16 1006.1R


STATION/POSITION TIME  TEMP    WIND        PRES    WAVE   SWELL
                       AIR SEA DIR/SP/G            HT/PER HT/PER/DIR
                 (UTC) (F)     (DEG/KT/KT) (MB)    (FT/S) (FT/S/D)
5E ST. MARYS GA  0921      73                N/A     2/ 6
FRYING PAN BUOY  0900   74 73  210/ 14/ 17 1006.0R
BUOY 41025       0950   70 72  250/  4/  6 1003.8F   3/ 6   3/170/ 6
CAPE LOOKOUT NC  1000   69     230/ 10/ 12 1004.8R
BUOY 41002       0950   73 74  220/ 14/ 16 1009.1R   6/ 7   3/240/ 7
BUOY 41010       0920   78 78  190/ 12/ 14 1009.0F
ST AUGUSTINE FL  1000   71 71  240/  6/  8 1009.1S


$$



USA.gov is the U.S. government's official web portal to all federal, state and local government web resources and services.